Time,TemperatureF,DewpointF,PressureIn,WindDirection,WindDirectionDegrees,WindSpeedMPH,WindSpeedGustMPH,Humidity,HourlyPrecipIn,Conditions,Clouds,dailyrainin,SolarRadiationWatts/m^2,SoftwareType,DateUTC
2013-03-23 00:00:00,62.2,60.5,29.80,South,176,1.0,1.0,94,0.00,,,0.00,0,Wunderground v.1.15,2013-03-23 05:00:00,
2013-03-23 00:05:00,62.2,60.5,29.80,SSE,149,1.0,3.0,94,0.00,,,0.00,0,Wunderground v.1.15,2013-03-23 05:05:00,
2013-03-23 00:10:00,62.2,60.5,29.80,SE,136,1.0,1.0,94,0.00,,,0.00,0,Wunderground v.1.15,2013-03-23 05:10:00,
2013-03-23 00:15:00,62.2,60.5,29.80,East,97,1.0,2.0,94,0.00,,,0.00,0,Wunderground v.1.15,2013-03-23 05:15:00,
2013-03-23 00:21:00,62.2,60.5,29.80,SSE,154,0.0,0.0,94,0.00,,,0.00,0,Wunderground v.1.15,2013-03-23 05:21:00,
2013-03-23 00:26:00,62.2,60.5,29.79,SE,146,1.0,7.0,94,0.00,,,0.00,0,Wunderground v.1.15,2013-03-23 05:26:00,
2013-03-23 00:32:00,62.2,60.5,29.80,SE,142,1.0,1.0,94,0.00,,,0.00,0,Wunderground v.1.15,2013-03-23 05:32:00,
2013-03-23 00:37:00,62.2,60.5,29.80,SE,144,0.0,1.0,94,0.00,,,0.00,0,Wunderground v.1.15,2013-03-23 05:37:00,
2013-03-23 00:42:00,62.2,60.5,29.80,SSW,204,0.0,3.0,94,0.00,,,0.00,0,Wunderground v.1.15,2013-03-23 05:42:00,
2013-03-23 00:48:00,62.1,60.4,29.80,SE,131,0.0,3.0,94,0.00,,,0.00,0,Wunderground v.1.15,2013-03-23 05:48:00,
2013-03-23 00:53:00,62.1,60.4,29.80,SSE,148,0.0,1.0,94,0.00,,,0.00,0,Wunderground v.1.15,2013-03-23 05:53:00,
2013-03-23 00:58:00,62.1,60.4,29.80,ESE,117,0.0,3.0,94,0.00,,,0.00,0,Wunderground v.1.15,2013-03-23 05:58:00,
2013-03-23 01:04:00,62.1,60.4,29.80,South,190,1.0,7.0,94,0.00,,,0.00,0,Wunderground v.1.15,2013-03-23 06:04:00,
2013-03-23 01:09:00,62.1,60.4,29.80,SSW,194,1.0,7.0,94,0.00,,,0.00,0,Wunderground v.1.15,2013-03-23 06:09:00,
2013-03-23 01:14:00,62.0,60.3,29.80,SE,143,0.0,7.0,94,0.00,,,0.00,0,Wunderground v.1.15,2013-03-23 06:14:00,
2013-03-23 01:20:00,62.0,60.3,29.80,SE,133,1.0,7.0,94,0.00,,,0.00,0,Wunderground v.1.15,2013-03-23 06:20:00,
2013-03-23 01:25:00,62.0,60.3,29.79,ESE,109,1.0,8.0,94,0.00,,,0.00,0,Wunderground v.1.15,2013-03-23 06:25:00,
2013-03-23 01:31:00,61.9,60.2,29.79,SE,142,1.0,7.0,94,0.00,,,0.00,0,Wunderground v.1.15,2013-03-23 06:31:00,
2013-03-23 01:36:00,61.9,60.2,29.79,SE,124,0.0,7.0,94,0.00,,,0.00,0,Wunderground v.1.15,2013-03-23 06:36:00,
2013-03-23 01:41:00,61.9,60.2,29.79,South,171,0.0,7.0,94,0.00,,,0.00,0,Wunderground v.1.15,2013-03-23 06:41:00,
2013-03-23 01:47:00,61.8,60.1,29.79,SSE,163,0.0,7.0,94,0.00,,,0.00,0,Wunderground v.1.15,2013-03-23 06:47:00,
2013-03-23 01:52:00,61.8,60.1,29.78,SE,125,0.0,7.0,94,0.00,,,0.00,0,Wunderground v.1.15,2013-03-23 06:52:00,
2013-03-23 01:58:00,61.8,60.1,29.78,SE,126,0.0,7.0,94,0.00,,,0.00,0,Wunderground v.1.15,2013-03-23 06:58:00,
2013-03-23 02:03:00,61.8,60.4,29.78,SE,139,0.0,7.0,95,0.00,,,0.00,0,Wunderground v.1.15,2013-03-23 07:03:00,
2013-03-23 02:09:00,61.8,60.4,29.78,SSE,147,0.0,7.0,95,0.00,,,0.00,0,Wunderground v.1.15,2013-03-23 07:09:00,
2013-03-23 02:14:00,61.8,60.4,29.78,SE,145,0.0,7.0,95,0.00,,,0.00,0,Wunderground v.1.15,2013-03-23 07:14:00,
2013-03-23 02:20:00,61.7,60.3,29.77,SE,143,1.0,1.0,95,0.00,,,0.00,0,Wunderground v.1.15,2013-03-23 07:20:00,
2013-03-23 02:25:00,61.7,60.3,29.78,SE,145,0.0,7.0,95,0.00,,,0.00,0,Wunderground v.1.15,2013-03-23 07:25:00,
2013-03-23 02:31:00,61.7,60.3,29.78,SSE,148,0.0,7.0,95,0.00,,,0.00,0,Wunderground v.1.15,2013-03-23 07:31:00,
2013-03-23 02:36:00,61.7,60.5,29.77,SSE,150,0.0,7.0,96,0.00,,,0.00,0,Wunderground v.1.15,2013-03-23 07:36:00,
2013-03-23 02:42:00,61.7,60.5,29.77,South,184,0.0,7.0,96,0.00,,,0.00,0,Wunderground v.1.15,2013-03-23 07:42:00,
2013-03-23 02:47:00,61.6,60.4,29.77,SE,129,0.0,7.0,96,0.00,,,0.00,0,Wunderground v.1.15,2013-03-23 07:47:00,
2013-03-23 02:52:00,61.7,60.5,29.76,SSE,156,0.0,7.0,96,0.00,,,0.00,0,Wunderground v.1.15,2013-03-23 07:52:00,
2013-03-23 02:58:00,61.7,60.5,29.76,South,183,0.0,7.0,96,0.00,,,0.00,0,Wunderground v.1.15,2013-03-23 07:58:00,
2013-03-23 03:03:00,61.7,60.5,29.76,South,182,0.0,7.0,96,0.00,,,0.00,0,Wunderground v.1.15,2013-03-23 08:03:00,
2013-03-23 03:08:00,61.7,60.5,29.76,South,182,0.0,7.0,96,0.00,,,0.00,0,Wunderground v.1.15,2013-03-23 08:08:00,
2013-03-23 03:14:00,61.7,60.5,29.75,SSE,150,0.0,7.0,96,0.00,,,0.00,0,Wunderground v.1.15,2013-03-23 08:14:00,
2013-03-23 03:19:00,61.7,60.5,29.75,SE,134,0.0,7.0,96,0.00,,,0.00,0,Wunderground v.1.15,2013-03-23 08:19:00,
2013-03-23 03:24:00,61.7,60.5,29.75,SE,146,0.0,7.0,96,0.00,,,0.00,0,Wunderground v.1.15,2013-03-23 08:24:00,
2013-03-23 03:30:00,61.7,60.8,29.75,ESE,119,0.0,7.0,97,0.00,,,0.00,0,Wunderground v.1.15,2013-03-23 08:30:00,
2013-03-23 03:35:00,61.7,60.8,29.75,ESE,121,0.0,7.0,97,0.00,,,0.00,0,Wunderground v.1.15,2013-03-23 08:35:00,
2013-03-23 03:40:00,61.8,60.9,29.74,SE,144,0.0,7.0,97,0.00,,,0.00,0,Wunderground v.1.15,2013-03-23 08:40:00,
2013-03-23 03:46:00,61.8,60.9,29.74,SE,130,0.0,7.0,97,0.00,,,0.00,0,Wunderground v.1.15,2013-03-23 08:46:00,
2013-03-23 03:51:00,61.8,60.9,29.74,East,97,0.0,7.0,97,0.00,,,0.00,0,Wunderground v.1.15,2013-03-23 08:51:00,
2013-03-23 03:57:00,61.8,60.9,29.74,SE,133,0.0,7.0,97,0.00,,,0.00,0,Wunderground v.1.15,2013-03-23 08:57:00,
2013-03-23 04:02:00,61.8,60.9,29.74,SSE,156,0.0,7.0,97,0.00,,,0.00,0,Wunderground v.1.15,2013-03-23 09:02:00,
2013-03-23 04:07:00,61.8,60.9,29.74,South,184,0.0,7.0,97,0.00,,,0.00,0,Wunderground v.1.15,2013-03-23 09:07:00,
2013-03-23 04:13:00,61.9,61.0,29.73,SSE,163,0.0,7.0,97,0.00,,,0.00,0,Wunderground v.1.15,2013-03-23 09:13:00,
2013-03-23 04:18:00,61.9,61.0,29.74,SW,216,0.0,7.0,97,0.00,,,0.00,0,Wunderground v.1.15,2013-03-23 09:18:00,
2013-03-23 04:24:00,61.9,61.0,29.74,SSE,167,0.0,7.0,97,0.00,,,0.00,0,Wunderground v.1.15,2013-03-23 09:24:00,
2013-03-23 04:29:00,61.8,60.9,29.74,SSE,147,0.0,7.0,97,0.00,,,0.00,0,Wunderground v.1.15,2013-03-23 09:29:00,
2013-03-23 04:35:00,61.8,60.9,29.74,SE,138,0.0,7.0,97,0.00,,,0.00,0,Wunderground v.1.15,2013-03-23 09:35:00,
2013-03-23 04:40:00,61.8,60.9,29.73,SE,146,1.0,1.0,97,0.00,,,0.00,0,Wunderground v.1.15,2013-03-23 09:40:00,
2013-03-23 04:46:00,61.8,60.9,29.73,South,172,0.0,7.0,97,0.00,,,0.00,0,Wunderground v.1.15,2013-03-23 09:46:00,
2013-03-23 04:51:00,61.8,60.9,29.73,SSE,163,0.0,7.0,97,0.00,,,0.00,0,Wunderground v.1.15,2013-03-23 09:51:00,
2013-03-23 04:56:00,61.8,60.9,29.73,SE,130,0.0,7.0,97,0.00,,,0.00,0,Wunderground v.1.15,2013-03-23 09:56:00,
2013-03-23 05:02:00,61.8,60.9,29.73,SE,139,0.0,7.0,97,0.00,,,0.00,0,Wunderground v.1.15,2013-03-23 10:02:00,
2013-03-23 05:08:00,61.8,60.9,29.73,SE,137,1.0,7.0,97,0.00,,,0.00,0,Wunderground v.1.15,2013-03-23 10:08:00,
2013-03-23 05:13:00,61.8,61.2,29.72,SE,136,0.0,7.0,98,0.00,,,0.00,0,Wunderground v.1.15,2013-03-23 10:13:00,
2013-03-23 05:18:00,61.8,61.2,29.73,SE,136,0.0,7.0,98,0.00,,,0.00,0,Wunderground v.1.15,2013-03-23 10:18:00,
2013-03-23 05:24:00,61.9,61.3,29.72,SE,137,0.0,7.0,98,0.00,,,0.00,0,Wunderground v.1.15,2013-03-23 10:24:00,
2013-03-23 05:29:00,61.9,61.3,29.72,SE,136,0.0,7.0,98,0.00,,,0.00,0,Wunderground v.1.15,2013-03-23 10:29:00,
2013-03-23 05:34:00,61.9,61.3,29.72,SE,136,0.0,7.0,98,0.00,,,0.00,0,Wunderground v.1.15,2013-03-23 10:34:00,
2013-03-23 05:39:00,61.9,61.3,29.72,SE,137,0.0,7.0,98,0.00,,,0.00,0,Wunderground v.1.15,2013-03-23 10:39:00,
2013-03-23 05:45:00,61.9,61.3,29.72,SE,136,0.0,7.0,98,0.00,,,0.00,0,Wunderground v.1.15,2013-03-23 10:45:00,
2013-03-23 05:50:00,62.0,61.4,29.73,SE,136,0.0,7.0,98,0.00,,,0.00,0,Wunderground v.1.15,2013-03-23 10:50:00,
2013-03-23 05:55:00,62.0,61.4,29.73,SE,136,0.0,7.0,98,0.00,,,0.00,0,Wunderground v.1.15,2013-03-23 10:55:00,
2013-03-23 06:01:00,62.0,61.4,29.73,SE,136,0.0,7.0,98,0.00,,,0.00,0,Wunderground v.1.15,2013-03-23 11:01:00,
2013-03-23 06:06:00,62.0,61.4,29.74,SE,136,0.0,7.0,98,0.00,,,0.00,0,Wunderground v.1.15,2013-03-23 11:06:00,
2013-03-23 06:12:00,62.0,61.4,29.73,SE,136,0.0,7.0,98,0.00,,,0.00,0,Wunderground v.1.15,2013-03-23 11:12:00,
2013-03-23 06:17:00,62.0,61.4,29.74,SE,136,0.0,7.0,98,0.00,,,0.00,0,Wunderground v.1.15,2013-03-23 11:17:00,
2013-03-23 06:22:00,62.0,61.4,29.73,SE,136,0.0,7.0,98,0.00,,,0.00,0,Wunderground v.1.15,2013-03-23 11:22:00,
2013-03-23 06:27:00,62.0,61.4,29.74,SE,136,0.0,7.0,98,0.00,,,0.00,0,Wunderground v.1.15,2013-03-23 11:27:00,
2013-03-23 06:33:00,62.0,61.4,29.74,SE,136,0.0,7.0,98,0.00,,,0.00,0,Wunderground v.1.15,2013-03-23 11:33:00,
2013-03-23 06:38:00,62.0,61.4,29.73,SE,136,0.0,7.0,98,0.00,,,0.00,0,Wunderground v.1.15,2013-03-23 11:38:00,
2013-03-23 06:43:00,61.9,61.3,29.73,SE,136,0.0,7.0,98,0.00,,,0.00,0,Wunderground v.1.15,2013-03-23 11:43:00,
2013-03-23 06:49:00,61.9,61.3,29.73,SE,136,0.0,7.0,98,0.00,,,0.00,0,Wunderground v.1.15,2013-03-23 11:49:00,
2013-03-23 06:54:00,61.8,61.2,29.73,SE,136,0.0,7.0,98,0.00,,,0.00,0,Wunderground v.1.15,2013-03-23 11:54:00,
2013-03-23 06:59:00,61.8,61.2,29.73,SE,136,0.0,7.0,98,0.00,,,0.00,0,Wunderground v.1.15,2013-03-23 11:59:00,
2013-03-23 07:04:00,61.7,61.1,29.73,SE,134,0.0,7.0,98,0.00,,,0.00,0,Wunderground v.1.15,2013-03-23 12:04:00,
2013-03-23 07:09:00,61.7,61.1,29.73,SE,134,0.0,7.0,98,0.00,,,0.00,0,Wunderground v.1.15,2013-03-23 12:09:00,
2013-03-23 07:15:00,61.6,61.0,29.73,ESE,113,0.0,7.0,98,0.00,,,0.00,0,Wunderground v.1.15,2013-03-23 12:15:00,
2013-03-23 07:20:00,61.6,61.0,29.74,ESE,112,0.0,7.0,98,0.00,,,0.00,0,Wunderground v.1.15,2013-03-23 12:20:00,
2013-03-23 07:26:00,61.6,61.0,29.74,ESE,112,0.0,7.0,98,0.00,,,0.00,5,Wunderground v.1.15,2013-03-23 12:26:00,
2013-03-23 07:32:00,61.6,61.0,29.75,ESE,112,0.0,7.0,98,0.00,,,0.00,9,Wunderground v.1.15,2013-03-23 12:32:00,
2013-03-23 07:37:00,61.6,61.0,29.75,ESE,112,0.0,7.0,98,0.00,,,0.00,11,Wunderground v.1.15,2013-03-23 12:37:00,
2013-03-23 07:42:00,61.6,61.0,29.75,ESE,112,0.0,7.0,98,0.00,,,0.00,18,Wunderground v.1.15,2013-03-23 12:42:00,
2013-03-23 07:48:00,61.7,61.1,29.76,ESE,111,0.0,7.0,98,0.00,,,0.00,21,Wunderground v.1.15,2013-03-23 12:48:00,
2013-03-23 07:53:00,61.6,61.0,29.76,East,100,0.0,7.0,98,0.00,,,0.00,25,Wunderground v.1.15,2013-03-23 12:53:00,
2013-03-23 07:58:00,61.7,61.1,29.76,East,98,0.0,7.0,98,0.00,,,0.00,23,Wunderground v.1.15,2013-03-23 12:58:00,
2013-03-23 08:03:00,61.7,61.1,29.77,East,98,0.0,7.0,98,0.00,,,0.00,25,Wunderground v.1.15,2013-03-23 13:03:00,
2013-03-23 08:08:00,61.7,61.1,29.77,East,98,0.0,7.0,98,0.00,,,0.00,26,Wunderground v.1.15,2013-03-23 13:08:00,
2013-03-23 08:13:00,61.7,61.1,29.77,East,98,0.0,7.0,98,0.00,,,0.00,30,Wunderground v.1.15,2013-03-23 13:13:00,
2013-03-23 08:18:00,61.8,61.2,29.77,East,98,0.0,7.0,98,0.00,,,0.00,30,Wunderground v.1.15,2013-03-23 13:18:00,
2013-03-23 08:24:00,61.8,61.2,29.78,East,89,0.0,7.0,98,0.00,,,0.00,32,Wunderground v.1.15,2013-03-23 13:24:00,
2013-03-23 08:29:00,61.8,61.2,29.78,East,87,0.0,7.0,98,0.00,,,0.00,30,Wunderground v.1.15,2013-03-23 13:29:00,
2013-03-23 08:35:00,61.8,61.2,29.78,East,87,0.0,7.0,98,0.00,,,0.00,39,Wunderground v.1.15,2013-03-23 13:35:00,
2013-03-23 08:40:00,61.8,61.2,29.78,East,84,0.0,7.0,98,0.00,,,0.00,40,Wunderground v.1.15,2013-03-23 13:40:00,
2013-03-23 08:45:00,61.8,61.2,29.78,East,82,0.0,7.0,98,0.00,,,0.00,39,Wunderground v.1.15,2013-03-23 13:45:00,
2013-03-23 08:51:00,61.8,61.2,29.77,East,82,0.0,7.0,98,0.00,,,0.00,47,Wunderground v.1.15,2013-03-23 13:51:00,
2013-03-23 08:57:00,61.8,61.2,29.77,ENE,71,1.0,7.0,98,0.00,,,0.00,56,Wunderground v.1.15,2013-03-23 13:57:00,
2013-03-23 09:03:00,61.9,61.3,29.77,ENE,71,1.0,7.0,98,0.00,,,0.00,56,Wunderground v.1.15,2013-03-23 14:03:00,
2013-03-23 09:08:00,61.9,61.3,29.77,ENE,71,0.0,7.0,98,0.00,,,0.00,62,Wunderground v.1.15,2013-03-23 14:08:00,
2013-03-23 09:14:00,62.0,61.4,29.77,ENE,71,0.0,7.0,98,0.00,,,0.00,65,Wunderground v.1.15,2013-03-23 14:14:00,
2013-03-23 09:19:00,62.0,61.4,29.78,ENE,70,0.0,7.0,98,0.00,,,0.00,49,Wunderground v.1.15,2013-03-23 14:19:00,
2013-03-23 09:25:00,62.0,61.4,29.78,ENE,70,0.0,7.0,98,0.00,,,0.00,47,Wunderground v.1.15,2013-03-23 14:25:00,
2013-03-23 09:30:00,62.0,61.4,29.78,ENE,67,0.0,7.0,98,0.00,,,0.00,49,Wunderground v.1.15,2013-03-23 14:30:00,
2013-03-23 09:35:00,62.0,61.4,29.78,ENE,67,0.0,7.0,98,0.00,,,0.00,65,Wunderground v.1.15,2013-03-23 14:35:00,
2013-03-23 09:41:00,62.0,61.4,29.79,ENE,67,0.0,7.0,98,0.00,,,0.00,33,Wunderground v.1.15,2013-03-23 14:41:00,
2013-03-23 09:47:00,62.0,61.4,29.80,ENE,67,0.0,7.0,98,0.00,,,0.00,32,Wunderground v.1.15,2013-03-23 14:47:00,
2013-03-23 09:53:00,61.9,61.3,29.80,ENE,67,0.0,7.0,98,0.00,,,0.00,37,Wunderground v.1.15,2013-03-23 14:53:00,
2013-03-23 09:58:00,61.9,61.3,29.80,ENE,67,0.0,7.0,98,0.00,,,0.00,63,Wunderground v.1.15,2013-03-23 14:58:00,
2013-03-23 10:04:00,61.9,61.3,29.80,ENE,67,0.0,7.0,98,0.00,,,0.00,69,Wunderground v.1.15,2013-03-23 15:04:00,
2013-03-23 10:09:00,61.9,61.3,29.80,ENE,66,0.0,7.0,98,0.00,,,0.00,74,Wunderground v.1.15,2013-03-23 15:09:00,
2013-03-23 10:14:00,61.9,61.3,29.80,ENE,66,0.0,7.0,98,0.00,,,0.00,69,Wunderground v.1.15,2013-03-23 15:14:00,
2013-03-23 10:20:00,62.0,61.4,29.80,ENE,66,0.0,7.0,98,0.00,,,0.00,69,Wunderground v.1.15,2013-03-23 15:20:00,
2013-03-23 10:25:00,62.0,61.4,29.80,ENE,67,0.0,7.0,98,0.00,,,0.00,95,Wunderground v.1.15,2013-03-23 15:25:00,
2013-03-23 10:31:00,62.0,61.4,29.80,ENE,68,0.0,7.0,98,0.00,,,0.00,74,Wunderground v.1.15,2013-03-23 15:31:00,
2013-03-23 10:36:00,62.0,61.4,29.80,ENE,68,0.0,7.0,98,0.00,,,0.00,65,Wunderground v.1.15,2013-03-23 15:36:00,
2013-03-23 10:42:00,62.0,61.4,29.80,ENE,68,0.0,7.0,98,0.00,,,0.00,63,Wunderground v.1.15,2013-03-23 15:42:00,
2013-03-23 10:47:00,62.0,61.4,29.80,ENE,68,0.0,7.0,98,0.00,,,0.00,105,Wunderground v.1.15,2013-03-23 15:47:00,
2013-03-23 10:52:00,62.0,61.4,29.79,ENE,67,0.0,7.0,98,0.00,,,0.00,130,Wunderground v.1.15,2013-03-23 15:52:00,
2013-03-23 10:58:00,62.0,61.4,29.80,ENE,67,0.0,7.0,98,0.00,,,0.00,56,Wunderground v.1.15,2013-03-23 15:58:00,
2013-03-23 11:04:00,62.1,61.5,29.79,ENE,67,0.0,7.0,98,0.00,,,0.00,123,Wunderground v.1.15,2013-03-23 16:04:00,
2013-03-23 11:09:00,62.1,61.5,29.79,ENE,67,0.0,7.0,98,0.00,,,0.00,116,Wunderground v.1.15,2013-03-23 16:09:00,
2013-03-23 11:14:00,62.1,61.5,29.79,East,82,0.0,7.0,98,0.00,,,0.00,63,Wunderground v.1.15,2013-03-23 16:14:00,
2013-03-23 11:20:00,62.2,61.6,29.79,East,84,0.0,7.0,98,0.00,,,0.00,86,Wunderground v.1.15,2013-03-23 16:20:00,
2013-03-23 11:26:00,62.2,61.6,29.79,East,84,0.0,7.0,98,0.00,,,0.00,111,Wunderground v.1.15,2013-03-23 16:26:00,
2013-03-23 11:32:00,62.3,61.7,29.78,East,84,0.0,7.0,98,0.00,,,0.00,128,Wunderground v.1.15,2013-03-23 16:32:00,
2013-03-23 11:38:00,62.4,61.8,29.78,East,84,0.0,7.0,98,0.00,,,0.00,107,Wunderground v.1.15,2013-03-23 16:38:00,
2013-03-23 11:43:00,62.4,61.8,29.78,East,84,0.0,7.0,98,0.00,,,0.00,109,Wunderground v.1.15,2013-03-23 16:43:00,
2013-03-23 11:48:00,62.3,61.7,29.78,East,84,0.0,7.0,98,0.00,,,0.00,139,Wunderground v.1.15,2013-03-23 16:48:00,
2013-03-23 11:54:00,62.4,61.8,29.77,East,84,0.0,7.0,98,0.00,,,0.00,183,Wunderground v.1.15,2013-03-23 16:54:00,
2013-03-23 11:59:00,62.6,62.0,29.77,East,96,0.0,7.0,98,0.00,,,0.00,232,Wunderground v.1.15,2013-03-23 16:59:00,
2013-03-23 12:04:00,62.8,62.2,29.77,ESE,103,0.0,7.0,98,0.00,,,0.00,276,Wunderground v.1.15,2013-03-23 17:04:00,
2013-03-23 12:10:00,63.0,62.4,29.77,ESE,122,0.0,7.0,98,0.00,,,0.00,190,Wunderground v.1.15,2013-03-23 17:10:00,
2013-03-23 12:15:00,62.8,62.2,29.76,ESE,122,0.0,7.0,98,0.00,,,0.00,146,Wunderground v.1.15,2013-03-23 17:15:00,
2013-03-23 12:21:00,62.9,62.3,29.76,ESE,122,0.0,7.0,98,0.00,,,0.00,146,Wunderground v.1.15,2013-03-23 17:21:00,
2013-03-23 12:26:00,63.1,62.5,29.76,ESE,117,0.0,7.0,98,0.00,,,0.00,169,Wunderground v.1.15,2013-03-23 17:26:00,
2013-03-23 12:32:00,63.4,62.8,29.75,ESE,122,0.0,7.0,98,0.00,,,0.00,125,Wunderground v.1.15,2013-03-23 17:32:00,
2013-03-23 12:37:00,63.4,62.8,29.75,ESE,111,0.0,7.0,98,0.00,,,0.00,181,Wunderground v.1.15,2013-03-23 17:37:00,
2013-03-23 12:42:00,63.4,62.8,29.74,East,100,1.0,7.0,98,0.00,,,0.00,172,Wunderground v.1.15,2013-03-23 17:42:00,
2013-03-23 12:48:00,63.5,62.9,29.74,East,100,1.0,7.0,98,0.00,,,0.00,264,Wunderground v.1.15,2013-03-23 17:48:00,
2013-03-23 12:53:00,63.6,63.0,29.74,East,100,0.0,7.0,98,0.00,,,0.00,287,Wunderground v.1.15,2013-03-23 17:53:00,
2013-03-23 12:58:00,64.0,63.4,29.74,East,100,0.0,7.0,98,0.00,,,0.00,260,Wunderground v.1.15,2013-03-23 17:58:00,
2013-03-23 13:04:00,64.2,63.9,29.74,East,98,0.0,7.0,99,0.00,,,0.00,156,Wunderground v.1.15,2013-03-23 18:04:00,
2013-03-23 13:10:00,64.1,63.5,29.72,East,83,0.0,7.0,98,0.00,,,0.00,237,Wunderground v.1.15,2013-03-23 18:10:00,
2013-03-23 13:15:00,64.3,63.7,29.72,ENE,68,0.0,7.0,98,0.00,,,0.00,302,Wunderground v.1.15,2013-03-23 18:15:00,
2013-03-23 13:21:00,64.6,64.0,29.72,ENE,68,0.0,7.0,98,0.00,,,0.00,244,Wunderground v.1.15,2013-03-23 18:21:00,
2013-03-23 13:26:00,64.8,64.2,29.72,ENE,68,0.0,7.0,98,0.00,,,0.00,366,Wunderground v.1.15,2013-03-23 18:26:00,
2013-03-23 13:32:00,65.4,65.1,29.71,ENE,67,0.0,7.0,99,0.00,,,0.00,390,Wunderground v.1.15,2013-03-23 18:32:00,
2013-03-23 13:37:00,65.4,64.8,29.70,NE,36,1.0,7.0,98,0.00,,,0.00,281,Wunderground v.1.15,2013-03-23 18:37:00,
2013-03-23 13:42:00,65.6,65.0,29.70,NE,36,1.0,7.0,98,0.00,,,0.00,397,Wunderground v.1.15,2013-03-23 18:42:00,
2013-03-23 13:48:00,65.9,65.3,29.70,NE,39,0.0,7.0,98,0.00,,,0.00,183,Wunderground v.1.15,2013-03-23 18:48:00,
2013-03-23 13:53:00,66.1,65.5,29.69,NE,38,0.0,7.0,98,0.00,,,0.00,283,Wunderground v.1.15,2013-03-23 18:53:00,
2013-03-23 13:58:00,66.1,64.9,29.69,East,101,1.0,7.0,96,0.00,,,0.00,193,Wunderground v.1.15,2013-03-23 18:58:00,
2013-03-23 14:04:00,66.3,65.1,29.68,East,101,0.0,7.0,96,0.00,,,0.00,330,Wunderground v.1.15,2013-03-23 19:04:00,
2013-03-23 14:09:00,66.4,65.2,29.68,East,101,0.0,7.0,96,0.00,,,0.00,255,Wunderground v.1.15,2013-03-23 19:09:00,
2013-03-23 14:15:00,66.6,65.4,29.68,East,101,0.0,7.0,96,0.00,,,0.00,172,Wunderground v.1.15,2013-03-23 19:15:00,
2013-03-23 14:20:00,66.6,65.1,29.67,ESE,110,0.0,7.0,95,0.00,,,0.00,250,Wunderground v.1.15,2013-03-23 19:20:00,
2013-03-23 14:25:00,66.7,65.2,29.66,ESE,113,0.0,7.0,95,0.00,,,0.00,229,Wunderground v.1.15,2013-03-23 19:25:00,
2013-03-23 14:31:00,67.0,65.5,29.66,ENE,76,0.0,7.0,95,0.00,,,0.00,237,Wunderground v.1.15,2013-03-23 19:31:00,
2013-03-23 14:37:00,67.1,65.3,29.66,ESE,107,1.0,7.0,94,0.00,,,0.00,179,Wunderground v.1.15,2013-03-23 19:37:00,
2013-03-23 14:42:00,67.4,65.6,29.66,ESE,107,0.0,7.0,94,0.00,,,0.00,172,Wunderground v.1.15,2013-03-23 19:42:00,
2013-03-23 14:48:00,67.4,65.6,29.65,East,88,1.0,7.0,94,0.00,,,0.00,236,Wunderground v.1.15,2013-03-23 19:48:00,
2013-03-23 14:53:00,67.6,65.8,29.65,East,88,1.0,7.0,94,0.00,,,0.00,155,Wunderground v.1.15,2013-03-23 19:53:00,
2013-03-23 14:58:00,67.8,66.0,29.64,East,88,0.0,7.0,94,0.00,,,0.00,355,Wunderground v.1.15,2013-03-23 19:58:00,
2013-03-23 15:04:00,68.1,66.0,29.64,East,88,0.0,7.0,93,0.00,,,0.00,272,Wunderground v.1.15,2013-03-23 20:04:00,
2013-03-23 15:09:00,68.4,66.3,29.62,ENE,78,1.0,7.0,93,0.00,,,0.00,348,Wunderground v.1.15,2013-03-23 20:09:00,
2013-03-23 15:14:00,68.7,66.3,29.62,NE,42,2.0,7.0,92,0.00,,,0.00,360,Wunderground v.1.15,2013-03-23 20:14:00,
2013-03-23 15:21:00,69.2,66.8,29.63,East,90,0.0,7.0,92,0.00,,,0.00,301,Wunderground v.1.15,2013-03-23 20:21:00,
2013-03-23 15:26:00,69.4,66.3,29.63,East,84,0.0,7.0,90,0.00,,,0.00,200,Wunderground v.1.15,2013-03-23 20:26:00,
2013-03-23 15:32:00,69.5,66.4,29.63,ESE,107,0.0,7.0,90,0.00,,,0.00,285,Wunderground v.1.15,2013-03-23 20:32:00,
2013-03-23 15:37:00,69.6,66.5,29.63,ESE,106,0.0,7.0,90,0.00,,,0.00,248,Wunderground v.1.15,2013-03-23 20:37:00,
2013-03-23 15:42:00,69.7,66.6,29.62,ESE,106,0.0,7.0,90,0.00,,,0.00,230,Wunderground v.1.15,2013-03-23 20:42:00,
2013-03-23 15:47:00,69.8,66.7,29.63,ESE,106,0.0,7.0,90,0.00,,,0.00,113,Wunderground v.1.15,2013-03-23 20:47:00,
2013-03-23 15:53:00,69.9,66.8,29.62,ESE,106,0.0,7.0,90,0.00,,,0.00,151,Wunderground v.1.15,2013-03-23 20:53:00,
2013-03-23 15:59:00,69.9,66.8,29.61,ESE,106,0.0,7.0,90,0.00,,,0.00,127,Wunderground v.1.15,2013-03-23 20:59:00,
2013-03-23 16:04:00,69.9,66.8,29.61,ESE,106,0.0,7.0,90,0.00,,,0.00,62,Wunderground v.1.15,2013-03-23 21:04:00,
2013-03-23 16:10:00,69.8,66.7,29.61,ESE,106,0.0,7.0,90,0.00,,,0.00,79,Wunderground v.1.15,2013-03-23 21:10:00,
2013-03-23 16:16:00,69.6,66.5,29.61,ESE,108,0.0,7.0,90,0.00,,,0.00,62,Wunderground v.1.15,2013-03-23 21:16:00,
2013-03-23 16:22:00,69.5,66.8,29.61,ESE,108,0.0,7.0,91,0.00,,,0.00,46,Wunderground v.1.15,2013-03-23 21:22:00,
2013-03-23 16:27:00,69.5,66.8,29.60,ESE,108,0.0,7.0,91,0.00,,,0.00,67,Wunderground v.1.15,2013-03-23 21:27:00,
2013-03-23 16:33:00,69.4,66.7,29.60,ESE,106,0.0,7.0,91,0.00,,,0.00,139,Wunderground v.1.15,2013-03-23 21:33:00,
2013-03-23 16:38:00,69.4,66.7,29.60,ESE,106,0.0,7.0,91,0.00,,,0.00,28,Wunderground v.1.15,2013-03-23 21:38:00,
2013-03-23 16:43:00,69.2,66.5,29.60,SE,146,1.0,7.0,91,0.00,,,0.00,21,Wunderground v.1.15,2013-03-23 21:43:00,
2013-03-23 16:49:00,68.7,66.3,29.60,ESE,115,1.0,7.0,92,0.00,,,0.00,40,Wunderground v.1.15,2013-03-23 21:49:00,
2013-03-23 16:55:00,68.2,66.1,29.59,ESE,111,0.0,7.0,93,0.00,,,0.00,47,Wunderground v.1.15,2013-03-23 21:55:00,
2013-03-23 17:01:00,67.8,66.0,29.58,ESE,111,0.0,7.0,94,0.00,,,0.00,51,Wunderground v.1.15,2013-03-23 22:01:00,
2013-03-23 17:07:00,67.5,66.0,29.58,ESE,111,0.0,7.0,95,0.00,,,0.00,28,Wunderground v.1.15,2013-03-23 22:07:00,
2013-03-23 17:24:00,67.0,65.8,29.58,ESE,112,0.0,7.0,96,0.00,,,0.00,39,Wunderground v.1.15,2013-03-23 22:24:00,
2013-03-23 17:31:00,66.9,65.7,29.58,ESE,111,0.0,7.0,96,0.00,,,0.00,11,Wunderground v.1.15,2013-03-23 22:31:00,
2013-03-23 17:37:00,66.7,65.5,29.58,ESE,111,0.0,7.0,96,0.00,,,0.00,19,Wunderground v.1.15,2013-03-23 22:37:00,
2013-03-23 17:43:00,66.5,65.6,29.58,ESE,111,0.0,7.0,97,0.00,,,0.00,18,Wunderground v.1.15,2013-03-23 22:43:00,
2013-03-23 17:56:00,66.2,65.3,29.57,ESE,108,0.0,7.0,97,0.00,,,0.00,21,Wunderground v.1.15,2013-03-23 22:56:00,
2013-03-23 18:23:00,65.8,64.9,29.57,East,88,0.0,7.0,97,0.00,,,0.00,12,Wunderground v.1.15,2013-03-23 23:23:00,
2013-03-23 18:28:00,65.8,64.9,29.56,East,88,0.0,7.0,97,0.00,,,0.00,23,Wunderground v.1.15,2013-03-23 23:28:00,
2013-03-23 18:33:00,65.7,64.8,29.55,East,88,0.0,7.0,97,0.00,,,0.00,33,Wunderground v.1.15,2013-03-23 23:33:00,
2013-03-23 18:39:00,65.7,64.8,29.56,ESE,115,0.0,7.0,97,0.00,,,0.00,12,Wunderground v.1.15,2013-03-23 23:39:00,
2013-03-23 18:44:00,65.7,64.8,29.56,ESE,115,0.0,7.0,97,0.00,,,0.00,7,Wunderground v.1.15,2013-03-23 23:44:00,
2013-03-23 18:52:00,65.6,64.7,29.56,ESE,114,0.0,7.0,97,0.00,,,0.00,5,Wunderground v.1.15,2013-03-23 23:52:00,
2013-03-23 18:58:00,65.5,64.6,29.56,ESE,114,0.0,7.0,97,0.00,,,0.00,0,Wunderground v.1.15,2013-03-23 23:58:00,
2013-03-23 19:03:00,65.4,64.5,29.56,ESE,111,0.0,7.0,97,0.00,,,0.00,0,Wunderground v.1.15,2013-03-24 00:03:00,
2013-03-23 19:09:00,65.4,64.5,29.55,ESE,111,0.0,7.0,97,0.00,,,0.00,0,Wunderground v.1.15,2013-03-24 00:09:00,
2013-03-23 19:15:00,65.4,64.8,29.55,ESE,111,0.0,7.0,98,0.00,,,0.00,0,Wunderground v.1.15,2013-03-24 00:15:00,
2013-03-23 19:20:00,65.3,64.7,29.55,ESE,111,0.0,7.0,98,0.00,,,0.00,0,Wunderground v.1.15,2013-03-24 00:20:00,
2013-03-23 19:26:00,65.3,64.7,29.55,ESE,111,0.0,7.0,98,0.00,,,0.00,0,Wunderground v.1.15,2013-03-24 00:26:00,
2013-03-23 19:32:00,65.3,64.7,29.55,ESE,111,0.0,7.0,98,0.00,,,0.00,0,Wunderground v.1.15,2013-03-24 00:32:00,
2013-03-23 19:38:00,65.2,64.6,29.55,ESE,111,0.0,7.0,98,0.00,,,0.00,0,Wunderground v.1.15,2013-03-24 00:38:00,
2013-03-23 19:44:00,65.2,64.6,29.55,ESE,111,0.0,7.0,98,0.00,,,0.00,0,Wunderground v.1.15,2013-03-24 00:44:00,
2013-03-23 19:55:00,65.2,64.6,29.55,ESE,111,0.0,7.0,98,0.00,,,0.00,0,Wunderground v.1.15,2013-03-24 00:55:00,
2013-03-23 20:00:00,65.2,64.6,29.55,ESE,111,0.0,7.0,98,0.00,,,0.00,0,Wunderground v.1.15,2013-03-24 01:00:00,
2013-03-23 20:06:00,65.2,64.6,29.55,ESE,111,0.0,7.0,98,0.00,,,0.00,0,Wunderground v.1.15,2013-03-24 01:06:00,
2013-03-23 20:11:00,65.2,64.6,29.55,ESE,111,0.0,7.0,98,0.00,,,0.00,0,Wunderground v.1.15,2013-03-24 01:11:00,
2013-03-23 20:16:00,65.2,64.6,29.55,ESE,111,0.0,7.0,98,0.00,,,0.00,0,Wunderground v.1.15,2013-03-24 01:16:00,
2013-03-23 20:22:00,65.2,64.6,29.55,ESE,111,0.0,7.0,98,0.00,,,0.00,0,Wunderground v.1.15,2013-03-24 01:22:00,
2013-03-23 20:27:00,65.2,64.6,29.55,ESE,111,0.0,7.0,98,0.00,,,0.00,0,Wunderground v.1.15,2013-03-24 01:27:00,
2013-03-23 20:32:00,65.1,64.5,29.55,ESE,111,0.0,7.0,98,0.00,,,0.00,0,Wunderground v.1.15,2013-03-24 01:32:00,
2013-03-23 20:37:00,65.1,64.5,29.55,ESE,111,0.0,7.0,98,0.00,,,0.00,0,Wunderground v.1.15,2013-03-24 01:37:00,
2013-03-23 20:43:00,65.1,64.5,29.55,ESE,111,0.0,7.0,98,0.00,,,0.00,0,Wunderground v.1.15,2013-03-24 01:43:00,
2013-03-23 20:48:00,65.1,64.5,29.55,ESE,111,0.0,7.0,98,0.00,,,0.00,0,Wunderground v.1.15,2013-03-24 01:48:00,
2013-03-23 20:53:00,65.0,64.4,29.55,ESE,111,0.0,7.0,98,0.00,,,0.00,0,Wunderground v.1.15,2013-03-24 01:53:00,
2013-03-23 20:58:00,65.0,64.4,29.55,ESE,111,0.0,7.0,98,0.00,,,0.00,0,Wunderground v.1.15,2013-03-24 01:58:00,
2013-03-23 21:04:00,65.0,64.4,29.55,ESE,111,0.0,7.0,98,0.00,,,0.00,0,Wunderground v.1.15,2013-03-24 02:04:00,
2013-03-23 21:10:00,65.1,64.5,29.55,ESE,111,0.0,7.0,98,0.00,,,0.00,0,Wunderground v.1.15,2013-03-24 02:10:00,
2013-03-23 21:15:00,65.1,64.5,29.55,ESE,111,0.0,7.0,98,0.00,,,0.00,0,Wunderground v.1.15,2013-03-24 02:15:00,
2013-03-23 21:21:00,65.1,64.5,29.55,ESE,111,0.0,7.0,98,0.00,,,0.00,0,Wunderground v.1.15,2013-03-24 02:21:00,
2013-03-23 21:34:00,65.2,64.6,29.55,ESE,111,0.0,7.0,98,0.00,,,0.00,0,Wunderground v.1.15,2013-03-24 02:34:00,
2013-03-23 21:42:00,65.2,64.6,29.55,ESE,111,0.0,7.0,98,0.00,,,0.00,0,Wunderground v.1.15,2013-03-24 02:42:00,
2013-03-23 21:48:00,65.2,64.6,29.55,ESE,111,0.0,7.0,98,0.00,,,0.00,0,Wunderground v.1.15,2013-03-24 02:48:00,
2013-03-23 21:54:00,65.2,64.6,29.55,ESE,111,0.0,7.0,98,0.00,,,0.00,0,Wunderground v.1.15,2013-03-24 02:54:00,
2013-03-23 22:17:00,65.3,64.7,29.55,ESE,111,0.0,7.0,98,0.00,,,0.00,0,Wunderground v.1.15,2013-03-24 03:17:00,
2013-03-23 22:28:00,65.3,64.7,29.55,ESE,111,0.0,7.0,98,0.00,,,0.00,0,Wunderground v.1.15,2013-03-24 03:28:00,
2013-03-23 22:33:00,65.3,64.7,29.55,ESE,111,0.0,7.0,98,0.00,,,0.00,0,Wunderground v.1.15,2013-03-24 03:33:00,
2013-03-23 22:39:00,65.4,64.8,29.55,ESE,111,0.0,7.0,98,0.00,,,0.00,0,Wunderground v.1.15,2013-03-24 03:39:00,
2013-03-23 22:44:00,65.3,64.7,29.55,ESE,111,0.0,7.0,98,0.00,,,0.00,0,Wunderground v.1.15,2013-03-24 03:44:00,
2013-03-23 22:49:00,65.3,64.7,29.55,ESE,111,0.0,7.0,98,0.00,,,0.00,0,Wunderground v.1.15,2013-03-24 03:49:00,
2013-03-23 22:54:00,65.4,64.8,29.55,ESE,111,0.0,7.0,98,0.00,,,0.00,0,Wunderground v.1.15,2013-03-24 03:54:00,
2013-03-23 23:00:00,65.4,64.8,29.55,ESE,111,0.0,7.0,98,0.00,,,0.00,0,Wunderground v.1.15,2013-03-24 04:00:00,
2013-03-23 23:01:00,65.4,64.8,29.55,ESE,111,0.0,7.0,98,0.00,,,0.00,0,Wunderground v.1.15,2013-03-24 04:01:00,
2013-03-23 23:05:00,65.4,64.8,29.55,ESE,111,0.0,7.0,98,0.00,,,0.00,0,Wunderground v.1.15,2013-03-24 04:05:00,
2013-03-23 23:10:00,65.4,64.8,29.55,ESE,111,0.0,7.0,98,0.00,,,0.00,0,Wunderground v.1.15,2013-03-24 04:10:00,
2013-03-23 23:12:00,65.5,64.9,29.55,ESE,111,0.0,7.0,98,0.00,,,0.00,0,Wunderground v.1.15,2013-03-24 04:12:00,
2013-03-23 23:17:00,65.5,64.9,29.55,ESE,111,0.0,7.0,98,0.00,,,0.00,0,Wunderground v.1.15,2013-03-24 04:17:00,
2013-03-23 23:23:00,65.5,64.9,29.55,ESE,111,0.0,7.0,98,0.00,,,0.00,0,Wunderground v.1.15,2013-03-24 04:23:00,
2013-03-23 23:28:00,65.5,64.9,29.55,ESE,111,0.0,7.0,98,0.00,,,0.00,0,Wunderground v.1.15,2013-03-24 04:28:00,
2013-03-23 23:34:00,65.5,64.9,29.55,ESE,111,0.0,7.0,98,0.00,,,0.00,0,Wunderground v.1.15,2013-03-24 04:34:00,
2013-03-23 23:39:00,65.6,65.0,29.55,ESE,111,0.0,7.0,98,0.00,,,0.00,0,Wunderground v.1.15,2013-03-24 04:39:00,
2013-03-23 23:45:00,65.6,65.0,29.55,ESE,111,0.0,7.0,98,0.00,,,0.00,0,Wunderground v.1.15,2013-03-24 04:45:00,
2013-03-23 23:50:00,65.5,64.9,29.55,ESE,111,0.0,7.0,98,0.00,,,0.00,0,Wunderground v.1.15,2013-03-24 04:50:00,
2013-03-23 23:55:00,65.6,65.0,29.55,ESE,111,0.0,7.0,98,0.00,,,0.00,0,Wunderground v.1.15,2013-03-24 04:55:00,